GW5149 Weather Reports


time (UTC)temp
C
wind
direction
speed
KPH
gust
KPH
rain 1hr
cm
rain 24hr
cm
rain mn
cm
humidity
%
barometer
mb
20260506031104 6 90 0.0 3.2 0.00 0.05 0.00 78 1014.0
20260506025100 6 45 0.0 3.2 0.00 0.05 0.00 77 1014.2
20260506024057 6 0.0 3.2 0.00 0.05 0.00 77 1014.3
20260506023056 6 0.0 0.0 0.00 0.05 0.00 77 1014.1
20260506022051 6 0.0 0.0 0.00 0.05 0.00 78 1014.1
20260506021050 6 23 0.0 3.2 0.00 0.05 0.00 77 1014.1
20260506020107 6 23 0.0 3.2 0.00 0.05 0.00 77 1014.1
20260506015044 6 352 0.0 6.4 0.00 0.05 0.00 76 1014.0
20260506014041 6 81 1.6 6.4 0.00 0.05 0.00 76 1014.1
20260506013058 6 8 0.0 6.4 0.00 0.05 0.00 76 1014.1
20260506012036 6 46 1.6 6.4 0.00 0.05 0.00 76 1014.1
20260506011033 6 65 1.6 9.7 0.00 0.05 0.00 76 1014.1
20260506010030 6 38 1.6 6.4 0.00 0.05 0.00 78 1014.2
20260506005028 6 293 0.0 3.2 0.00 0.05 0.00 78 1014.3
20260506004025 6 0 0.0 3.2 0.00 0.05 0.00 78 1014.3
20260506003022 7 68 0.0 6.4 0.00 0.05 0.00 78 1014.3
20260506002020 7 342 1.6 6.4 0.00 0.05 0.00 78 1014.3
20260506001037 7 293 0.0 3.2 0.00 0.05 0.00 78 1014.3
20260506000115 7 11 0.0 6.4 0.00 0.05 0.00 78 1014.4
20260505235117 7 341 1.6 6.4 0.00 0.05 0.00 78 1014.3
20260505234110 7 327 0.0 6.4 0.00 0.05 0.00 78 1014.2
20260505233109 7 322 0.0 6.4 0.00 0.05 0.00 78 1014.3
20260505232105 7 0.0 3.2 0.00 0.05 0.00 78 1014.3
20260505231102 7 315 0.0 3.2 0.00 0.05 0.00 78 1014.3
20260505230059 7 0.0 3.2 0.00 0.05 0.00 78 1014.4
20260505225058 7 23 0.0 3.2 0.00 0.05 0.05 77 1014.3
20260505224054 7 68 0.0 3.2 0.00 0.05 0.05 78 1014.3
20260505223111 7 55 0.0 3.2 0.00 0.05 0.05 78 1014.4
20260505222049 7 23 0.0 3.2 0.00 0.05 0.05 78 1014.3
20260505221234 7 0.0 3.2 0.00 0.05 0.05 78 1014.2
20260505220044 7 338 0.0 3.2 0.00 0.05 0.05 78 1014.2
20260505215046 7 56 0.0 6.4 0.00 0.05 0.05 79 1014.2
20260505214039 7 45 0.0 6.4 0.00 0.05 0.05 79 1014.1
20260505213036 7 0.0 3.2 0.00 0.05 0.05 79 1014.2
20260505212034 7 83 0.0 6.4 0.00 0.05 0.05 79 1014.1
20260505211032 7 317 1.6 6.4 0.00 0.05 0.05 79 1014.0
20260505210047 7 11 1.6 6.4 0.00 0.05 0.05 79 1014.1
20260505205045 7 42 1.6 9.7 0.00 0.05 0.05 79 1014.0
20260505204026 7 115 0.0 3.2 0.00 0.05 0.05 80 1014.0
20260505203020 7 52 0.0 6.4 0.00 0.05 0.05 80 1014.1
20260505202017 7 41 1.6 6.4 0.00 0.05 0.05 79 1014.0
20260505201134 8 43 0.0 6.4 0.00 0.05 0.05 80 1014.0
20260505200112 8 62 0.0 6.4 0.00 0.05 0.05 80 1014.0
20260505195109 8 45 1.6 6.4 0.03 0.05 0.05 81 1013.8
20260505194106 8 36 0.0 6.4 0.03 0.05 0.05 82 1013.8
20260505193104 8 10 1.6 6.4 0.05 0.05 0.05 82 1013.6
20260505192101 8 99 1.6 9.7 0.05 0.05 0.05 83 1013.5
20260505191118 8 348 3.2 9.7 0.05 0.05 0.05 83 1013.4
20260505190056 8 75 1.6 9.7 0.05 0.05 0.05 84 1013.4
20260505185053 8 23 3.2 6.4 0.03 0.03 0.03 84 1013.3
20260505184051 8 329 3.2 9.7 0.03 0.03 0.03 82 1013.2
20260505183048 9 11 1.6 9.7 0.00 0.00 0.00 81 1013.2
20260505182045 9 45 1.6 6.4 0.00 0.00 0.00 80 1013.2
20260505181043 10 326 4.8 14.5 0.00 0.00 0.00 78 1013.2
20260505180041 10 21 3.2 12.9 0.00 0.00 0.00 76 1013.2
20260505175038 11 29 1.6 3.2 0.00 0.00 0.00 73 1012.9
20260505174036 11 338 0.0 3.2 0.00 0.00 0.00 71 1013.1
20260505173032 11 338 0.0 6.4 0.00 0.00 0.00 71 1013.2
20260505172030 11 0.0 3.2 0.00 0.00 0.00 71 1013.0
20260505171047 11 53 1.6 6.4 0.00 0.00 0.00 69 1012.8
20260505170025 11 324 1.6 6.4 0.00 0.00 0.00 71 1013.0
20260505165023 11 1 3.2 11.3 0.00 0.00 0.00 71 1012.9
20260505164021 11 356 4.8 11.3 0.00 0.00 0.00 70 1013.1
20260505163017 11 352 4.8 12.9 0.00 0.00 0.00 69 1012.9
20260505162114 11 341 3.2 6.4 0.00 0.00 0.00 70 1013.0
20260505161112 12 359 4.8 12.9 0.00 0.00 0.00 69 1012.9
20260505160109 12 2 4.8 14.5 0.00 0.00 0.00 66 1012.6
20260505153102 12 348 4.8 17.7 0.00 0.00 0.00 64 1013.1
20260505152059 12 351 6.4 17.7 0.00 0.00 0.00 64 1013.1
20260505151057 12 352 4.8 17.7 0.00 0.00 0.00 67 1012.8
20260505124018 11 324 4.8 11.3 0.00 0.00 0.00 69 1013.7
20260505123016 11 348 3.2 12.9 0.00 0.00 0.00 70 1013.6
20260505122115 11 350 4.8 11.3 0.00 0.00 0.00 69 1013.6
20260505121111 11 5 4.8 9.7 0.00 0.00 0.00 69 1013.4
20260505120109 11 7 1.6 6.4 0.00 0.00 0.00 69 1013.6
20260505115106 11 358 3.2 9.7 0.00 0.00 0.00 71 1013.7
20260505114103 11 351 3.2 6.4 0.00 0.00 0.00 73 1013.4
20260505113100 11 352 3.2 12.9 0.00 0.00 0.00 73 1013.0
20260505112058 12 10 6.4 12.9 0.00 0.00 0.00 73 1012.9
20260505111055 12 30 4.8 11.3 0.00 0.00 0.00 73 1011.1
20260505102102 11 340 3.2 9.7 0.00 0.00 0.00 77 1012.9
20260505101041 11 347 3.2 9.7 0.00 0.00 0.00 77 1013.1
20260505100037 11 356 3.2 12.9 0.00 0.00 0.00 76 1013.0
20260505095034 11 17 3.2 9.7 0.00 0.00 0.00 74 1013.2
20260505094032 11 5 3.2 9.7 0.00 0.00 0.00 74 1013.0
20260505093049 11 357 3.2 9.7 0.00 0.00 0.00 72 1013.0
20260505092027 10 353 3.2 9.7 0.00 0.00 0.00 73 1013.1
20260505091024 10 15 3.2 6.4 0.00 0.00 0.00 74 1013.1
20260505090043 10 343 1.6 9.7 0.00 0.00 0.00 78 1013.0
20260505085019 10 357 3.2 11.3 0.00 0.00 0.00 80 1013.0
20260505084016 10 11 3.2 9.7 0.00 0.00 0.00 81 1013.1
20260505083135 10 353 1.6 6.4 0.00 0.00 0.00 81 1013.0
20260505082133 10 2 3.2 9.7 0.00 0.00 0.00 81 1013.0
20260505081110 11 18 4.8 12.9 0.00 0.00 0.00 79 1013.0
20260505080107 10 348 3.2 11.3 0.00 0.00 0.00 80 1013.0
20260505075124 10 13 3.2 9.7 0.00 0.00 0.00 80 1013.1
20260505074122 10 351 1.6 6.4 0.00 0.00 0.00 80 1013.1
20260505073059 10 358 3.2 6.4 0.00 0.00 0.00 80 1013.0
20260505072056 10 0 1.6 9.7 0.00 0.00 0.00 81 1013.1
20260505071054 10 349 1.6 6.4 0.00 0.00 0.00 82 1013.0
20260505070051 10 353 3.2 9.7 0.00 0.00 0.00 82 1013.1
20260505065048 10 11 0.0 3.2 0.00 0.00 0.00 84 1013.1
20260505064046 10 356 1.6 6.4 0.00 0.00 0.00 84 1013.1
20260505063045 10 0 1.6 6.4 0.00 0.00 0.00 85 1013.0
20260505062041 9 0 1.6 6.4 0.00 0.00 0.00 85 1012.8
20260505061058 9 9 1.6 3.2 0.00 0.00 0.00 86 1012.9
20260505060036 9 0 0.0 3.2 0.00 0.00 0.00 87 1012.9
20260505055034 8 331 1.6 9.7 0.00 0.00 0.00 88 1012.8
20260505054030 7 0 0.0 3.2 0.00 0.00 0.00 88 1012.9
20260505053028 7 0.0 0.0 0.00 0.00 0.00 88 1012.8
20260505052027 7 0.0 0.0 0.00 0.00 0.00 88 1012.9
20260505051023 7 0.0 0.0 0.00 0.00 0.00 89 1012.8
20260505041129 6 0.0 0.0 0.00 0.00 0.00 90 1012.9
20260505040105 6 0.0 0.0 0.00 0.00 0.00 90 1012.8
20260505035103 6 0.0 0.0 0.00 0.00 0.00 90 1013.0
20260505034101 5 0.0 0.0 0.00 0.00 0.00 89 1013.0
20260505033117 5 0.0 0.0 0.00 0.00 0.00 89 1012.9